| time (UTC) | temp F | wind direction | speed MPH | gust MPH | rain 1hr in | rain 24hr in | rain mn in | humidity % | barometer mb |
| 20260906194717 | 59 | 300 | 2.0 | 7.0 | 0.00 | 0.02 | 0.00 | 65 | 1016.9 |
| 20260906193818 | 60 | 322 | 2.0 | 5.0 | 0.00 | 0.02 | 0.00 | 63 | 1017.0 |
| 20260906192703 | 60 | 2 | 2.0 | 5.0 | 0.00 | 0.02 | 0.00 | 63 | 1016.9 |
| 20260906192017 | 60 | 2 | 2.0 | 6.0 | 0.00 | 0.02 | 0.00 | 63 | 1017.2 |
| 20260906190903 | 59 | 238 | 2.0 | 6.0 | 0.00 | 0.02 | 0.00 | 66 | 1017.1 |
| 20260906190217 | 59 | 251 | 1.0 | 6.0 | 0.00 | 0.02 | 0.00 | 69 | 1017.4 |
| 20260906185617 | 59 | 259 | 1.0 | 4.0 | 0.00 | 0.02 | 0.00 | 67 | 1017.4 |
| 20260906184503 | 59 | 223 | 2.0 | 6.0 | 0.00 | 0.02 | 0.00 | 67 | 1017.6 |
| 20260906183603 | 58 | 211 | 1.0 | 5.0 | 0.00 | 0.02 | 0.00 | 73 | 1017.7 |
| 20260906182703 | 58 | 262 | 1.0 | 4.0 | 0.00 | 0.02 | 0.00 | 75 | 1017.8 |
| 20260906181805 | 57 | 61 | 2.0 | 5.0 | 0.00 | 0.02 | 0.00 | 71 | 1018.0 |
| 20260906181120 | 57 | 119 | 1.0 | 5.0 | 0.00 | 0.02 | 0.00 | 75 | 1018.1 |
| 20260906180003 | 56 | 270 | 1.0 | 4.0 | 0.00 | 0.02 | 0.00 | 76 | 1018.5 |
| 20260906175404 | 56 | 294 | 1.0 | 4.0 | 0.00 | 0.02 | 0.00 | 74 | 1018.1 |
| 20260906174718 | 55 | 335 | 1.0 | 7.0 | 0.00 | 0.02 | 0.00 | 76 | 1018.6 |
| 20260906173603 | 54 | 227 | 1.0 | 5.0 | 0.00 | 0.02 | 0.00 | 82 | 1018.6 |
| 20260906172703 | 54 | 169 | 2.0 | 6.0 | 0.00 | 0.02 | 0.00 | 85 | 1018.6 |
| 20260906172018 | 54 | 176 | 2.0 | 6.0 | 0.00 | 0.02 | 0.00 | 85 | 1018.6 |
| 20260906170903 | 53 | 187 | 2.0 | 6.0 | 0.00 | 0.02 | 0.00 | 86 | 1018.5 |
| 20260906170003 | 52 | 171 | 2.0 | 5.0 | 0.00 | 0.02 | 0.00 | 89 | 1018.7 |
| 20260906165403 | 52 | 164 | 2.0 | 4.0 | 0.00 | 0.02 | 0.00 | 91 | 1018.7 |
| 20260906164503 | 51 | 159 | 2.0 | 4.0 | 0.00 | 0.02 | 0.00 | 92 | 1018.8 |
| 20260906163817 | 50 | 167 | 1.0 | 3.0 | 0.00 | 0.02 | 0.00 | 92 | 1019.0 |
| 20260906162703 | 49 | 169 | 2.0 | 4.0 | 0.00 | 0.02 | 0.00 | 94 | 1018.9 |
| 20260906162017 | 49 | 153 | 2.0 | 4.0 | 0.00 | 0.02 | 0.00 | 95 | 1018.9 |
| 20260906161117 | 49 | 155 | 3.0 | 5.0 | 0.00 | 0.02 | 0.00 | 95 | 1019.2 |
| 20260906160003 | 48 | 157 | 2.0 | 4.0 | 0.00 | 0.02 | 0.00 | 96 | 1019.3 |
| 20260906155403 | 47 | 153 | 1.0 | 3.0 | 0.00 | 0.02 | 0.00 | 97 | 1019.4 |
| 20260906154503 | 46 | 164 | 2.0 | 4.0 | 0.00 | 0.02 | 0.00 | 98 | 1019.3 |
| 20260906153603 | 45 | 134 | 2.0 | 5.0 | 0.00 | 0.02 | 0.00 | 98 | 1019.5 |
| 20260906152703 | 44 | 132 | 2.0 | 4.0 | 0.00 | 0.02 | 0.00 | 98 | 1019.3 |
| 20260906151803 | 44 | 132 | 2.0 | 5.0 | 0.00 | 0.02 | 0.00 | 98 | 1019.0 |
| 20260906150903 | 43 | 137 | 2.0 | 5.0 | 0.00 | 0.02 | 0.00 | 98 | 1019.5 |
| 20260906150003 | 42 | 141 | 2.0 | 5.0 | 0.00 | 0.02 | 0.00 | 98 | 1019.3 |
| 20260906145403 | 42 | 169 | 2.0 | 4.0 | 0.00 | 0.02 | 0.00 | 98 | 1019.3 |
| 20260906144503 | 41 | 174 | 1.0 | 3.0 | 0.00 | 0.02 | 0.00 | 98 | 1019.4 |
| 20260906143603 | 40 | 171 | 1.0 | 3.0 | 0.00 | 0.02 | 0.00 | 98 | 1019.5 |
| 20260906142703 | 39 | 20 | 0.0 | 1.0 | 0.00 | 0.02 | 0.00 | 98 | 1019.4 |
| 20260906142017 | 39 | 122 | 0.0 | 2.0 | 0.00 | 0.02 | 0.00 | 98 | 1019.4 |
| 20260906140903 | 38 | 42 | 0.0 | 1.0 | 0.00 | 0.02 | 0.00 | 97 | 1019.0 |
| 20260906140003 | 39 | 360 | 0.0 | 1.0 | 0.00 | 0.02 | 0.00 | 97 | 1019.2 |
| 20260906135617 | 39 | 360 | 0.0 | 1.0 | 0.00 | 0.02 | 0.00 | 97 | 1019.0 |
| 20260906134503 | 39 | 61 | 0.0 | 2.0 | 0.00 | 0.02 | 0.00 | 97 | 1019.4 |
| 20260906133603 | 39 | 49 | 0.0 | 2.0 | 0.00 | 0.02 | 0.00 | 98 | 1019.4 |
| 20260906132703 | 39 | 18 | 1.0 | 2.0 | 0.00 | 0.02 | 0.00 | 98 | 1019.3 |
| 20260906131803 | 39 | 61 | 0.0 | 4.0 | 0.00 | 0.02 | 0.00 | 98 | 1019.4 |
| 20260906130903 | 39 | 107 | 0.0 | 3.0 | 0.00 | 0.02 | 0.00 | 97 | 1019.2 |
| 20260906130003 | 39 | 115 | 1.0 | 3.0 | 0.00 | 0.02 | 0.00 | 98 | 1019.4 |
| 20260906125403 | 39 | 55 | 0.0 | 2.0 | 0.00 | 0.02 | 0.00 | 97 | 1019.4 |
| 20260906124503 | 38 | 75 | 0.0 | 2.0 | 0.00 | 0.02 | 0.00 | 97 | 1019.3 |
| 20260906123603 | 39 | 85 | 0.0 | 2.0 | 0.00 | 0.02 | 0.00 | 97 | 1019.5 |
| 20260906122704 | 39 | 0 | 0.0 | 0.0 | 0.00 | 0.03 | 0.00 | 97 | 1019.4 |
| 20260906121803 | 39 | 87 | 0.0 | 1.0 | 0.00 | 0.03 | 0.00 | 97 | 1019.5 |
| 20260906120903 | 39 | 0 | 0.0 | 0.0 | 0.00 | 0.03 | 0.00 | 97 | 1019.3 |
| 20260906120003 | 40 | 139 | 0.0 | 2.0 | 0.00 | 0.03 | 0.00 | 97 | 1019.0 |
| 20260906115403 | 40 | 52 | 1.0 | 2.0 | 0.00 | 0.03 | 0.00 | 97 | 1019.5 |
| 20260906114718 | 40 | 31 | 0.0 | 2.0 | 0.00 | 0.03 | 0.00 | 96 | 1019.4 |
| 20260906113817 | 40 | 360 | 0.0 | 1.0 | 0.00 | 0.03 | 0.00 | 97 | 1019.4 |
| 20260906112703 | 41 | 103 | 0.0 | 2.0 | 0.00 | 0.03 | 0.00 | 97 | 1019.5 |
| 20260906111803 | 42 | 111 | 0.0 | 2.0 | 0.00 | 0.03 | 0.00 | 96 | 1019.5 |
| 20260906110903 | 42 | 156 | 1.0 | 3.0 | 0.00 | 0.03 | 0.00 | 97 | 1019.5 |
| 20260906110003 | 43 | 127 | 1.0 | 4.0 | 0.00 | 0.03 | 0.00 | 98 | 1019.6 |
| 20260906105403 | 42 | 112 | 1.0 | 3.0 | 0.00 | 0.03 | 0.00 | 98 | 1019.5 |
| 20260906104505 | 42 | 133 | 1.0 | 3.0 | 0.00 | 0.03 | 0.00 | 98 | 1019.4 |
| 20260906103603 | 41 | 143 | 1.0 | 3.0 | 0.00 | 0.03 | 0.00 | 97 | 1019.3 |
| 20260906102703 | 41 | 158 | 1.0 | 2.0 | 0.00 | 0.03 | 0.00 | 97 | 1019.5 |
| 20260906101803 | 42 | 90 | 1.0 | 2.0 | 0.00 | 0.03 | 0.00 | 97 | 1019.6 |
| 20260906100903 | 41 | 116 | 1.0 | 3.0 | 0.00 | 0.03 | 0.00 | 98 | 1019.6 |
| 20260906100003 | 40 | 167 | 1.0 | 3.0 | 0.00 | 0.03 | 0.00 | 97 | 1019.6 |
| 20260906095618 | 40 | 168 | 2.0 | 3.0 | 0.00 | 0.03 | 0.00 | 97 | 1019.7 |
| 20260906094503 | 40 | 148 | 0.0 | 2.0 | 0.00 | 0.03 | 0.00 | 96 | 1019.7 |
| 20260906093603 | 40 | 60 | 0.0 | 2.0 | 0.00 | 0.03 | 0.00 | 96 | 1019.6 |
| 20260906092703 | 40 | 145 | 0.0 | 2.0 | 0.00 | 0.03 | 0.00 | 96 | 1019.6 |
| 20260906092017 | 40 | 138 | 0.0 | 2.0 | 0.00 | 0.03 | 0.00 | 97 | 1019.6 |
| 20260906090903 | 40 | 137 | 1.0 | 4.0 | 0.00 | 0.03 | 0.00 | 97 | 1019.5 |
| 20260906090003 | 40 | 140 | 0.0 | 3.0 | 0.00 | 0.03 | 0.00 | 96 | 1019.6 |
| 20260906085403 | 40 | 113 | 0.0 | 2.0 | 0.00 | 0.03 | 0.00 | 96 | 1019.7 |
| 20260906084503 | 40 | 29 | 0.0 | 1.0 | 0.00 | 0.03 | 0.00 | 96 | 1019.8 |
| 20260906083603 | 40 | 177 | 0.0 | 1.0 | 0.00 | 0.03 | 0.00 | 96 | 1019.8 |
| 20260906082917 | 41 | 140 | 0.0 | 2.0 | 0.00 | 0.03 | 0.00 | 96 | 1020.1 |
| 20260906081803 | 41 | 12 | 0.0 | 1.0 | 0.00 | 0.03 | 0.00 | 96 | 1019.9 |
| 20260906081118 | 41 | 10 | 0.0 | 2.0 | 0.00 | 0.03 | 0.00 | 96 | 1019.7 |
| 20260906080005 | 41 | 71 | 0.0 | 2.0 | 0.00 | 0.03 | 0.00 | 96 | 1019.8 |
| 20260906075617 | 41 | 44 | 1.0 | 2.0 | 0.00 | 0.03 | 0.00 | 96 | 1020.1 |
| 20260906074503 | 41 | 54 | 0.0 | 2.0 | 0.00 | 0.03 | 0.00 | 96 | 1019.7 |
| 20260906073603 | 41 | 41 | 0.0 | 2.0 | 0.00 | 0.03 | 0.00 | 96 | 1019.9 |
| 20260906072703 | 41 | 34 | 0.0 | 2.0 | 0.00 | 0.03 | 0.00 | 96 | 1019.8 |
| 20260906071803 | 42 | 109 | 0.0 | 1.0 | 0.00 | 0.03 | 0.00 | 96 | 1019.8 |
| 20260906070903 | 42 | 92 | 0.0 | 1.0 | 0.00 | 0.03 | 0.00 | 96 | 1019.9 |
| 20260906070003 | 42 | 66 | 0.0 | 2.0 | 0.00 | 0.03 | 0.00 | 96 | 1020.2 |
| 20260906065403 | 42 | 48 | 0.0 | 2.0 | 0.00 | 0.03 | 0.03 | 96 | 1020.2 |
| 20260906064503 | 42 | 52 | 0.0 | 2.0 | 0.00 | 0.03 | 0.03 | 96 | 1019.9 |
| 20260906063604 | 42 | 50 | 0.0 | 2.0 | 0.00 | 0.03 | 0.03 | 95 | 1019.9 |
| 20260906062703 | 42 | 36 | 0.0 | 1.0 | 0.00 | 0.03 | 0.03 | 95 | 1019.9 |
| 20260906062018 | 43 | 36 | 0.0 | 1.0 | 0.00 | 0.03 | 0.03 | 95 | 1019.8 |
| 20260906061117 | 43 | 15 | 0.0 | 1.0 | 0.00 | 0.03 | 0.03 | 95 | 1020.4 |
| 20260906060218 | 43 | 22 | 0.0 | 2.0 | 0.00 | 0.03 | 0.03 | 96 | 1020.1 |
| 20260906055403 | 43 | 27 | 1.0 | 3.0 | 0.00 | 0.03 | 0.03 | 95 | 1020.2 |
| 20260906054503 | 43 | 49 | 0.0 | 2.0 | 0.00 | 0.03 | 0.03 | 95 | 1020.2 |
| 20260906053604 | 43 | 22 | 0.0 | 2.0 | 0.00 | 0.03 | 0.03 | 95 | 1020.1 |
| 20260906052703 | 43 | 19 | 0.0 | 2.0 | 0.00 | 0.03 | 0.03 | 94 | 1020.3 |
| 20260906051803 | 43 | 84 | 0.0 | 3.0 | 0.00 | 0.03 | 0.03 | 94 | 1019.9 |
| 20260906050903 | 43 | 74 | 0.0 | 2.0 | 0.00 | 0.03 | 0.03 | 94 | 1019.8 |
| 20260906050218 | 43 | 47 | 0.0 | 1.0 | 0.00 | 0.03 | 0.03 | 94 | 1020.3 |
| 20260906045403 | 43 | 24 | 0.0 | 2.0 | 0.00 | 0.03 | 0.03 | 94 | 1019.7 |
| 20260906044503 | 44 | 59 | 0.0 | 2.0 | 0.00 | 0.03 | 0.03 | 93 | 1019.9 |
| 20260906043818 | 44 | 5 | 0.0 | 2.0 | 0.00 | 0.03 | 0.03 | 92 | 1020.1 |
| 20260906042705 | 44 | 19 | 1.0 | 2.0 | 0.00 | 0.03 | 0.03 | 93 | 1019.8 |
| 20260906042019 | 44 | 23 | 1.0 | 2.0 | 0.00 | 0.03 | 0.03 | 92 | 1019.8 |
| 20260906040903 | 44 | 10 | 1.0 | 2.0 | 0.00 | 0.03 | 0.03 | 92 | 1019.9 |
| 20260906040004 | 44 | 10 | 1.0 | 2.0 | 0.00 | 0.03 | 0.03 | 92 | 1019.9 |
| 20260906035403 | 45 | 11 | 1.0 | 2.0 | 0.00 | 0.03 | 0.03 | 91 | 1019.8 |
| 20260906034719 | 45 | 12 | 1.0 | 2.0 | 0.00 | 0.03 | 0.03 | 92 | 1019.8 |
| 20260906033603 | 45 | 7 | 1.0 | 2.0 | 0.00 | 0.03 | 0.03 | 91 | 1020.1 |
| 20260906032703 | 45 | 3 | 1.0 | 2.0 | 0.00 | 0.03 | 0.03 | 90 | 1019.8 |
| 20260906031803 | 46 | 3 | 2.0 | 3.0 | 0.00 | 0.03 | 0.03 | 90 | 1019.6 |
| 20260906031118 | 46 | 3 | 1.0 | 3.0 | 0.00 | 0.03 | 0.03 | 90 | 1019.6 |
| 20260906030003 | 47 | 8 | 1.0 | 2.0 | 0.00 | 0.03 | 0.03 | 90 | 1019.7 |
| 20260906025617 | 47 | 8 | 1.0 | 2.0 | 0.00 | 0.04 | 0.03 | 90 | 1019.4 |
| 20260906024503 | 47 | 355 | 0.0 | 1.0 | 0.00 | 0.04 | 0.03 | 88 | 1019.4 |
| 20260906023603 | 48 | 6 | 0.0 | 2.0 | 0.00 | 0.04 | 0.03 | 88 | 1019.5 |
| 20260906022703 | 49 | 11 | 1.0 | 2.0 | 0.00 | 0.04 | 0.03 | 87 | 1019.5 |
| 20260906021803 | 50 | 10 | 0.0 | 1.0 | 0.00 | 0.04 | 0.03 | 87 | 1019.7 |
| 20260906020903 | 50 | 11 | 1.0 | 2.0 | 0.00 | 0.04 | 0.03 | 85 | 1019.2 |
| 20260906020003 | 51 | 14 | 0.0 | 2.0 | 0.00 | 0.04 | 0.03 | 83 | 1019.4 |
| 20260906015403 | 51 | 18 | 0.0 | 2.0 | 0.00 | 0.04 | 0.03 | 82 | 1019.5 |
| 20260906014503 | 52 | 0 | 0.0 | 0.0 | 0.00 | 0.05 | 0.03 | 80 | 1019.4 |
| 20260906013603 | 53 | 75 | 0.0 | 1.0 | 0.00 | 0.05 | 0.03 | 77 | 1019.4 |
| 20260906012703 | 53 | 151 | 0.0 | 1.0 | 0.00 | 0.06 | 0.03 | 76 | 1019.0 |
| 20260906011803 | 53 | 155 | 0.0 | 2.0 | 0.00 | 0.06 | 0.03 | 74 | 1019.5 |
| 20260906010903 | 53 | 16 | 0.0 | 4.0 | 0.00 | 0.07 | 0.03 | 75 | 1019.4 |
| 20260906010003 | 53 | 18 | 0.0 | 3.0 | 0.00 | 0.08 | 0.03 | 77 | 1019.5 |
| 20260906005403 | 52 | 70 | 0.0 | 1.0 | 0.00 | 0.08 | 0.03 | 77 | 1019.5 |
| 20260906004503 | 53 | 0 | 0.0 | 0.0 | 0.00 | 0.09 | 0.03 | 78 | 1019.2 |
| 20260906003603 | 53 | 209 | 0.0 | 1.0 | 0.00 | 0.09 | 0.03 | 77 | 1019.2 |
| 20260906002703 | 53 | 251 | 0.0 | 1.0 | 0.00 | 0.11 | 0.03 | 76 | 1019.4 |
| 20260906001803 | 53 | 226 | 0.0 | 1.0 | 0.00 | 0.12 | 0.03 | 76 | 1019.4 |
| 20260906001117 | 54 | 228 | 0.0 | 2.0 | 0.00 | 0.13 | 0.03 | 77 | 1019.2 |
| 20260906000003 | 54 | 278 | 0.0 | 2.0 | 0.00 | 0.15 | 0.03 | 77 | 1019.2 |
| 20260905235403 | 54 | 262 | 0.0 | 3.0 | 0.00 | 0.16 | 0.03 | 77 | 1019.2 |
| 20260905234503 | 54 | 178 | 1.0 | 4.0 | 0.00 | 0.16 | 0.03 | 76 | 1019.4 |
| 20260905233603 | 54 | 213 | 1.0 | 4.0 | 0.00 | 0.16 | 0.03 | 77 | 1019.6 |
| 20260905232703 | 54 | 226 | 1.0 | 4.0 | 0.00 | 0.16 | 0.03 | 78 | 1019.5 |
| 20260905231803 | 54 | 240 | 1.0 | 4.0 | 0.00 | 0.16 | 0.03 | 78 | 1019.5 |
| 20260905230903 | 54 | 233 | 1.0 | 6.0 | 0.00 | 0.16 | 0.03 | 82 | 1019.4 |
| 20260905230004 | 53 | 270 | 1.0 | 4.0 | 0.00 | 0.16 | 0.03 | 78 | 1019.6 |
| 20260905225403 | 53 | 271 | 1.0 | 4.0 | 0.00 | 0.16 | 0.03 | 80 | 1019.5 |
| 20260905224717 | 52 | 235 | 0.0 | 3.0 | 0.00 | 0.16 | 0.03 | 82 | 1019.5 |
| 20260905223603 | 53 | 230 | 1.0 | 5.0 | 0.00 | 0.16 | 0.03 | 83 | 1019.6 |
| 20260905222703 | 53 | 183 | 2.0 | 6.0 | 0.02 | 0.16 | 0.03 | 85 | 1019.9 |
| 20260905221803 | 53 | 223 | 1.0 | 7.0 | 0.02 | 0.16 | 0.03 | 86 | 1019.4 |
| 20260905220903 | 54 | 252 | 0.0 | 2.0 | 0.02 | 0.16 | 0.03 | 87 | 1019.7 |
| 20260905220003 | 54 | 281 | 0.0 | 3.0 | 0.02 | 0.16 | 0.03 | 87 | 1019.4 |
| 20260905215617 | 54 | 329 | 0.0 | 2.0 | 0.02 | 0.16 | 0.03 | 87 | 1019.5 |
| 20260905214503 | 53 | 358 | 0.0 | 2.0 | 0.02 | 0.16 | 0.03 | 85 | 1019.4 |
| 20260905213603 | 55 | 89 | 1.0 | 4.0 | 0.02 | 0.15 | 0.03 | 76 | 1019.3 |
| 20260905212703 | 56 | 131 | 2.0 | 5.0 | 0.00 | 0.13 | 0.01 | 69 | 1019.3 |
| 20260905212017 | 57 | 101 | 1.0 | 5.0 | 0.00 | 0.13 | 0.01 | 68 | 1019.2 |
| 20260905210903 | 58 | 146 | 2.0 | 5.0 | 0.00 | 0.14 | 0.01 | 66 | 1019.5 |
| 20260905210003 | 60 | 166 | 2.0 | 6.0 | 0.00 | 0.14 | 0.01 | 67 | 1019.3 |
| 20260905205403 | 60 | 165 | 4.0 | 8.0 | 0.00 | 0.14 | 0.01 | 64 | 1019.3 |
| 20260905204718 | 60 | 166 | 4.0 | 9.0 | 0.00 | 0.14 | 0.01 | 69 | 1019.4 |
| 20260905203817 | 59 | 168 | 3.0 | 8.0 | 0.00 | 0.14 | 0.01 | 64 | 1019.4 |
| 20260905202703 | 58 | 169 | 3.0 | 7.0 | 0.00 | 0.14 | 0.01 | 72 | 1019.6 |
| 20260905201803 | 58 | 171 | 3.0 | 7.0 | 0.00 | 0.14 | 0.01 | 68 | 1019.4 |
| 20260905200904 | 57 | 229 | 1.0 | 6.0 | 0.00 | 0.14 | 0.01 | 76 | 1019.6 |
| 20260905200005 | 56 | 263 | 1.0 | 4.0 | 0.00 | 0.15 | 0.01 | 79 | 1019.4 |
| 20260905195403 | 56 | 238 | 1.0 | 5.0 | 0.00 | 0.15 | 0.01 | 80 | 1019.6 |